sat.trackr.live / text

‹ back to catalog

KINEIS-1B

NORAD 60079 · 2024-114A

PAYLOAD ACTIVE UNKNOWN

§ Identity

Operator
Country
FR
Launch date
2024-06-20
Launch site
RLLB
Launch vehicle
Mass (kg)
RCS (m²)

External: N2YO · Heavens-Above · Gunter

§ Orbital elements

Epoch: 2026-09-22T21:41:00.602016Z

Period
97.25 min
Inclination
97.9803°
Eccentricity
0.0003602
Mean motion
14.80752649 rev/d
Perigee alt
624.4 km
Apogee alt
629.5 km
Semi-major
7,005.1 km
B*
5.7113e-5
RAAN
289.6176°
Arg perigee
122.8563°
Mean anomaly
237.2996°
Rev number
12,186

§ Raw data

KINEIS-1B1 60079U 24114A   26265.90347919  .00000387  00000+0  57113-4 0  99952 60079  97.9803 289.6176 0003602 122.8563 237.2996 14.80752649121869

JSON: /api/v1/satellites/60079 · /tle

For live sub-satellite position, see the globe view (requires WebGL).

§ Visibility from observer

Set your observer location to see the next 7 days of passes ≥ 10°. The values pass through the URL so the page stays shareable.

No JS? Fill the form by hand. The geolocation button needs JavaScript.

§ Radio — SatNOGS DB

ModeDescriptionDownlinkUplink
FSK Mode U - Telemetry 400.657 MHz
BPSK S-band telemetry 2.266 GHz

2 transmitters · refreshed weekly from db.satnogs.org